Hourly Weather Santiago del Estero

Today, 26 September, Saturday

Time Temperature Precipitation Wind Pressure Humidity
00:00 +30°C° 0 mm 2 mps 732 mmHg 40%
01:00 +29°C° 0 mm 2 mps 732 mmHg 41%
02:00 +29°C° 0 mm 2 mps 731 mmHg 43%
03:00 +28°C° 0 mm 2 mps 731 mmHg 46%
04:00 +27°C° 0 mm 2 mps 732 mmHg 48%
05:00 +26°C° 0 mm 2 mps 732 mmHg 51%
06:00 +26°C° 0 mm 4 mps 732 mmHg 54%
07:00 +27°C° 0 mm 6 mps 733 mmHg 57%
08:00 +28°C° 0 mm 8 mps 734 mmHg 60%
09:00 +31°C° 0 mm 9 mps 734 mmHg 54%
10:00 +33°C° 0 mm 9 mps 735 mmHg 47%
11:00 +35°C° 0 mm 9 mps 735 mmHg 40%
12:00 +35°C° 0 mm 9 mps 734 mmHg 37%
13:00 +37°C° 0 mm 9 mps 734 mmHg 34%
14:00 +38°C° 0 mm 9 mps 733 mmHg 31%
15:00 +38°C° 0 mm 9 mps 733 mmHg 30%
16:00 +37°C° 0 mm 9 mps 733 mmHg 29%
17:00 +35°C° 0 mm 9 mps 733 mmHg 28%
18:00 +34°C° 0 mm 9 mps 734 mmHg 28%
19:00 +33°C° 0 mm 9 mps 735 mmHg 29%
20:00 +31°C° 0 mm 9 mps 737 mmHg 29%
21:00 +28°C° 0.1 mm 8 mps 737 mmHg 41%
22:00 +24°C° 0.1 mm 7 mps 738 mmHg 53%
23:00 +22°C° 0.1 mm 6 mps 739 mmHg 65%

Tomorrow, 27 September, Sunday

Time Temperature Precipitation Wind Pressure Humidity
00:00 +21°C° 0.1 mm 5 mps 740 mmHg 65%
01:00 +20°C° 0.1 mm 4 mps 740 mmHg 64%
02:00 +19°C° 0.1 mm 3 mps 740 mmHg 64%
03:00 +19°C° 0 mm 3 mps 741 mmHg 59%
04:00 +19°C° 0 mm 4 mps 741 mmHg 53%
05:00 +18°C° 0 mm 4 mps 742 mmHg 48%
06:00 +19°C° 0 mm 5 mps 742 mmHg 42%
07:00 +20°C° 0 mm 6 mps 743 mmHg 36%
08:00 +21°C° 0 mm 7 mps 744 mmHg 29%
09:00 +23°C° 0 mm 6 mps 744 mmHg 25%
10:00 +26°C° 0 mm 6 mps 744 mmHg 20%
11:00 +28°C° 0 mm 6 mps 744 mmHg 16%
12:00 +29°C° 0 mm 5 mps 744 mmHg 14%
13:00 +30°C° 0 mm 5 mps 743 mmHg 13%
14:00 +32°C° 0 mm 5 mps 742 mmHg 11%
15:00 +30°C° 0 mm 5 mps 742 mmHg 12%
16:00 +30°C° 0 mm 5 mps 742 mmHg 13%
17:00 +30°C° 0 mm 5 mps 742 mmHg 14%
18:00 +27°C° 0 mm 4 mps 742 mmHg 16%
19:00 +25°C° 0 mm 3 mps 743 mmHg 19%
20:00 +21°C° 0 mm 3 mps 743 mmHg 21%
21:00 +20°C° 0 mm 3 mps 744 mmHg 25%
22:00 +19°C° 0 mm 3 mps 744 mmHg 29%
23:00 +18°C° 0 mm 3 mps 745 mmHg 33%

Day after tomorrow, 28 September, Monday

Time Temperature Precipitation Wind Pressure Humidity
00:00 +17°C° 0 mm 3 mps 745 mmHg 39%
01:00 +16°C° 0 mm 2 mps 744 mmHg 44%
02:00 +15°C° 0 mm 2 mps 744 mmHg 50%
03:00 +15°C° 0 mm 2 mps 744 mmHg 53%
04:00 +14°C° 0 mm 2 mps 744 mmHg 56%
05:00 +14°C° 0 mm 2 mps 744 mmHg 58%
06:00 +16°C° 0 mm 2 mps 744 mmHg 53%
07:00 +18°C° 0 mm 3 mps 745 mmHg 47%
08:00 +20°C° 0 mm 4 mps 745 mmHg 41%
09:00 +22°C° 0 mm 4 mps 745 mmHg 35%
10:00 +25°C° 0 mm 5 mps 744 mmHg 30%
11:00 +27°C° 0 mm 5 mps 744 mmHg 24%
12:00 +29°C° 0 mm 6 mps 743 mmHg 22%
13:00 +30°C° 0 mm 6 mps 741 mmHg 20%
14:00 +32°C° 0 mm 7 mps 740 mmHg 18%
15:00 +32°C° 0 mm 7 mps 739 mmHg 18%
16:00 +32°C° 0 mm 7 mps 738 mmHg 18%
17:00 +31°C° 0 mm 8 mps 737 mmHg 19%
18:00 +28°C° 0 mm 7 mps 738 mmHg 22%
19:00 +26°C° 0 mm 6 mps 738 mmHg 24%
20:00 +23°C° 0 mm 6 mps 738 mmHg 27%
21:00 +22°C° 0 mm 5 mps 738 mmHg 28%
22:00 +21°C° 0 mm 5 mps 738 mmHg 30%
23:00 +21°C° 0 mm 5 mps 737 mmHg 31%

29 September, Tuesday

Time Temperature Precipitation Wind Pressure Humidity
00:00 +20°C° 0 mm 5 mps 737 mmHg 33%
01:00 +19°C° 0 mm 5 mps 737 mmHg 34%
02:00 +19°C° 0 mm 5 mps 736 mmHg 36%
03:00 +18°C° 0 mm 4 mps 736 mmHg 38%
04:00 +18°C° 0 mm 4 mps 736 mmHg 40%
05:00 +17°C° 0 mm 4 mps 736 mmHg 42%
06:00 +19°C° 0 mm 5 mps 736 mmHg 39%
07:00 +20°C° 0 mm 6 mps 736 mmHg 36%
08:00 +22°C° 0 mm 6 mps 736 mmHg 34%
09:00 +26°C° 0 mm 6 mps 736 mmHg 30%
10:00 +29°C° 0 mm 7 mps 735 mmHg 26%
11:00 +32°C° 0 mm 7 mps 735 mmHg 22%
12:00 +34°C° 0 mm 6 mps 734 mmHg 20%
13:00 +36°C° 0 mm 5 mps 733 mmHg 19%
14:00 +37°C° 0 mm 4 mps 733 mmHg 17%
15:00 +37°C° 0 mm 4 mps 732 mmHg 17%
16:00 +37°C° 0 mm 4 mps 732 mmHg 17%
17:00 +37°C° 0 mm 3 mps 732 mmHg 18%
18:00 +34°C° 0 mm 3 mps 733 mmHg 22%
19:00 +31°C° 0 mm 3 mps 733 mmHg 27%
20:00 +28°C° 0 mm 3 mps 734 mmHg 32%
21:00 +27°C° 0 mm 3 mps 734 mmHg 36%
22:00 +26°C° 0 mm 3 mps 734 mmHg 41%
23:00 +25°C° 0 mm 3 mps 735 mmHg 46%

30 September, Wednesday

Time Temperature Precipitation Wind Pressure Humidity
00:00 +24°C° 0 mm 3 mps 735 mmHg 51%
01:00 +23°C° 0 mm 2 mps 735 mmHg 55%
02:00 +21°C° 0 mm 2 mps 734 mmHg 60%
03:00 +20°C° 0 mm 2 mps 735 mmHg 63%
04:00 +21°C° 0 mm 1 mps 735 mmHg 65%
05:00 +20°C° 0 mm 1 mps 735 mmHg 68%
06:00 +21°C° 0 mm 2 mps 736 mmHg 63%
07:00 +22°C° 0 mm 3 mps 736 mmHg 58%
08:00 +25°C° 0 mm 4 mps 737 mmHg 54%
09:00 +27°C° 0 mm 4 mps 737 mmHg 49%
10:00 +30°C° 0 mm 5 mps 737 mmHg 44%
11:00 +33°C° 0 mm 5 mps 737 mmHg 39%
12:00 +34°C° 0 mm 6 mps 737 mmHg 37%
13:00 +35°C° 0 mm 6 mps 736 mmHg 34%
14:00 +36°C° 0 mm 7 mps 736 mmHg 31%
15:00 +35°C° 0 mm 7 mps 736 mmHg 33%
16:00 +34°C° 0 mm 8 mps 736 mmHg 35%
17:00 +32°C° 0 mm 8 mps 736 mmHg 37%
18:00 +29°C° 0 mm 7 mps 737 mmHg 41%
19:00 +27°C° 0 mm 7 mps 738 mmHg 45%
20:00 +26°C° 0 mm 6 mps 739 mmHg 49%
21:00 +23°C° 0 mm 6 mps 739 mmHg 47%
22:00 +22°C° 0 mm 6 mps 740 mmHg 44%
23:00 +20°C° 0 mm 5 mps 740 mmHg 42%

1 October, Thursday

Time Temperature Precipitation Wind Pressure Humidity
00:00 +19°C° 0 mm 5 mps 740 mmHg 41%
01:00 +18°C° 0 mm 4 mps 740 mmHg 39%
02:00 +17°C° 0 mm 3 mps 740 mmHg 38%
03:00 +17°C° 0 mm 4 mps 740 mmHg 38%
04:00 +17°C° 0 mm 4 mps 741 mmHg 37%
05:00 +16°C° 0 mm 5 mps 741 mmHg 37%
06:00 +16°C° 0 mm 5 mps 742 mmHg 36%
07:00 +18°C° 0 mm 4 mps 742 mmHg 35%
08:00 +18°C° 0 mm 4 mps 743 mmHg 34%
09:00 +19°C° 0 mm 5 mps 743 mmHg 34%
10:00 +19°C° 0 mm 5 mps 743 mmHg 35%
11:00 +20°C° 0 mm 5 mps 743 mmHg 35%
12:00 +21°C° 0 mm 5 mps 743 mmHg 35%
13:00 +21°C° 0 mm 5 mps 743 mmHg 35%
14:00 +22°C° 0 mm 5 mps 742 mmHg 35%
15:00 +22°C° 0 mm 5 mps 743 mmHg 33%
16:00 +22°C° 0 mm 5 mps 743 mmHg 32%
17:00 +22°C° 0 mm 4 mps 743 mmHg 30%
18:00 +22°C° 0 mm 4 mps 744 mmHg 28%
19:00 +22°C° 0 mm 5 mps 746 mmHg 25%
20:00 +22°C° 0 mm 5 mps 747 mmHg 23%
21:00 +21°C° 0 mm 4 mps 748 mmHg 23%
22:00 +20°C° 0 mm 4 mps 749 mmHg 23%
23:00 +20°C° 0 mm 4 mps 750 mmHg 23%
Show more